Location: Hac?veliler
(36.3675°N, 30.2733°E)
Time: 12:34:06
(UTC+00:00)

Daily predictions for brighter satellites

Satellite Brightness Start Highest point End
(mag) Time Altitude Azimuth Time Altitude Azimuth Time Altitude Azimuth
Resurs 01 Rocket 2.8 17:47:07 10° SE 17:50:47 26° ENE 17:54:29 10° NNE
IRS-1C Rocket 4.2 17:46:23 10° SSE 17:51:39 87° WSW 17:56:57 10° NNW
Cosmos 1624 Rocket 4.1 17:47:24 10° SSW 17:52:38 85° WNW 17:57:52 10° NNE
Cosmos 1455 Rocket 3.6 17:48:46 10° N 17:52:50 39° E 17:56:52 10° SSE
Cosmos 1140 Rocket 3.6 17:48:13 10° NNW 17:53:25 85° WSW 17:58:33 10° SSE
Cosmos 407 Rocket 3.5 17:49:40 10° NNW 17:54:49 89° WSW 17:59:56 10° SSE
Okean 1 Rocket 3.8 17:52:34 10° NNW 17:56:55 55° W 18:01:13 10° S
Cosmos 1190 Rocket 4.2 17:51:40 10° N 17:56:56 62° ENE 18:02:09 10° SSE
Lacrosse 5 2.7 17:53:56 10° NNW 17:58:45 40° NE 18:03:32 10° ESE
Meteor 1-24 Rocket 3.7 17:54:47 10° S 17:59:57 56° E 18:05:16 10° NNE
CZ-4B R/B 2.4 17:58:30 10° NE 18:00:45 20° E 18:03:00 10° SSE
Okean O Rocket 4.4 17:59:49 10° SW 18:02:29 16° W 18:05:09 10° NW
Okean-O 3.4 18:01:18 10° S 18:05:38 54° W 18:09:59 10° NNW
IGS 5A 3.6 18:03:10 10° S 18:07:17 77° WSW 18:11:26 10° NNW
Cosmos 1953 4.1 18:03:53 10° NNW 18:07:25 32° W 18:10:57 10° SSW
ASTRO E2 4.5 18:08:18 10° S 18:10:18 13° SSE 18:11:19 12° SE
H-2A R/B 2.6 18:07:11 10° S 18:10:56 64° WSW 18:14:45 10° NNW
Meteor 2-10 Rocket 3.8 18:08:26 10° NNW 18:13:24 66° W 18:18:24 10° S
Cosmos 2056 Rocket 4.5 18:09:24 10° SSW 18:14:38 53° WNW 18:19:57 10° N
Cosmos 1271 Rocket 3.7 18:12:31 10° NNE 18:16:05 31° ENE 18:18:44 15° SE
Cosmos 1709 Rocket 4.0 18:12:13 10° N 18:18:28 75° E 18:24:46 10° SSE
Cosmos 2315 Rocket 4.0 18:13:52 10° S 18:20:12 87° E 18:26:32 10° N
MetOp-A 4.1 18:16:43 10° S 18:20:59 62° W 18:25:39 10° NNW
H-2A R/B 2.1 18:16:33 10° NNE 18:21:02 88° ESE 18:25:32 10° SSW
Cosmos 1975 Rocket 3.8 18:19:04 10° SSW 18:23:25 57° W 18:27:47 10° N
Cosmos 676 Rocket 4.1 18:20:23 10° NNW 18:25:40 67° ENE 18:29:59 15° SSE
Cosmos 1455 2.8 18:22:12 10° N 18:25:48 39° E 18:28:11 18° SE
Ariane Rocket 3.3 18:26:13 15° SE 18:30:15 51° ENE 18:35:10 10° N
Tiangong 1.0 18:32:54 10° WNW 18:36:04 73° SSW 18:37:34 28° SE
GEOS 3 Rocket 3.6 18:36:11 19° SE 18:39:51 69° NE 18:44:56 10° NNW
Cosmos 1954 Rocket 4.0 18:35:09 10° NNW 18:40:25 81° WSW 18:44:37 16° SSE
Cosmos 1656 4.0 18:38:09 10° N 18:43:29 50° ENE 18:46:48 22° SE
ATLAS 2AS CENTAUR R/B 2.6 18:36:45 10° NNW 18:43:45 87° ENE 18:48:29 20° SSE
Cosmos 1544 Rocket 3.4 18:41:04 10° N 18:45:25 79° E 18:48:23 20° SSE
MetOp-B 4.2 18:42:35 19° SSE 18:46:19 63° ENE 18:51:37 10° N
Lacrosse 5 rocket 2.5 18:44:21 10° WNW 18:47:54 34° SW 18:50:20 18° S
USA 32 4.2 18:46:18 10° S 18:51:30 75° W 18:56:44 10° N
Cosmos 1980 Rocket 4.2 18:51:13 10° NNE 18:54:26 15° NE 18:57:22 11° E
Cosmos 1331 Rocket 4.0 18:49:37 10° S 18:54:43 60° ESE 18:59:56 10° NNE
Cosmos 1697 Rocket 3.8 18:50:17 10° N 18:55:09 29° ENE 18:57:48 20° ESE
SPOT 1/Viking Rocket 3.7 18:53:19 16° S 18:57:26 70° WSW 19:02:35 10° NNW
COSMOS 2406 3.6 18:54:08 18° S 18:58:04 44° ESE 19:03:29 10° NE
Spot 2 Rocket 4.2 18:58:36 26° ESE 19:00:47 40° ENE 19:05:32 10° N
NOSS 2-1 (E) 4.4 18:58:18 10° NNW 19:03:34 86° WSW 19:07:55 26° SSE
SPOT 5 3.0 19:10:32 36° ESE 19:11:46 46° ENE 19:15:55 10° N
CZ-2C R/B 4.0 19:08:30 10° NNE 19:12:50 45° E 19:13:44 39° SE
Cosmos 1833 Rocket 2.9 19:08:58 10° SSW 19:14:32 74° WNW 19:20:10 10° NNE
X-37B 2.8 19:12:36 10° NNW 19:14:36 17° NNE 19:15:49 14° NE
Cosmos 1703 3.5 19:16:02 27° SSW 19:17:57 66° W 19:21:48 10° N
Terra 2.5 19:17:34 33° ESE 19:18:46 38° ENE 19:23:09 10° N
Cosmos 1110 Rocket 4.3 19:16:34 10° SSW 19:21:46 68° WNW 19:27:04 10° NNE
Delta 2 Rocket 2.7 19:20:13 10° W 19:23:21 75° SW 19:23:21 75° SW
ERS-1 Rocket 3.1 19:22:34 40° SE 19:24:09 58° ENE 19:29:05 10° N
RESURS DK-1 2.3 19:20:36 10° NNW 19:24:45 77° ENE 19:25:28 58° SE
Cosmos 1302 Rocket 4.1 19:23:43 40° SSE 19:25:07 53° ESE 19:30:10 10° NNE
Helios 1A Rocket 3.0 19:24:58 53° ESE 19:25:36 61° ENE 19:29:39 10° N
Cosmos 1892 Rocket 4.2 19:27:07 37° E 19:27:07 37° E 19:31:06 10° NNE
Resurs 01 Rocket 3.6 19:23:44 11° SSW 19:27:10 24° W 19:30:48 10° NW
CZ-4B R/B 4.3 19:31:05 10° NW 19:32:01 11° WNW 19:32:57 10° W
Cosmos 2184 Rocket 4.0 19:27:46 10° N 19:33:58 79° W 19:37:07 31° S
Cosmos 2228 2.9 19:33:33 10° N 19:37:48 85° W 19:38:27 63° S
Cosmos 2058 Rocket 4.5 19:34:38 10° NNE 19:38:03 24° ENE 19:38:03 24° ENE
Cosmos 1408 4.2 19:42:17 23° NE 19:42:17 23° NE 19:43:59 10° NNE
Lacrosse 5 3.1 19:37:10 10° WNW 19:41:34 30° WSW 19:42:52 26° SSW
Cosmos 968 Rocket 4.2 19:41:00 10° N 19:45:50 38° ENE 19:46:37 36° E
Cosmos 1900 4.4 19:41:42 10° NNW 19:46:50 67° ENE 19:47:43 56° ESE
Cosmos 1328 3.8 19:46:39 70° SW 19:46:58 76° W 19:50:59 10° N
Cosmos 2082 Rocket 2.1 19:45:37 35° SSW 19:48:09 85° ESE 19:53:53 10° NNE
Cosmos 2360 4.1 19:46:44 10° NNW 19:52:30 87° ENE 19:53:50 55° SSE
USA 267 3.1 19:46:01 10° NE 19:52:31 66° SE 19:58:11 14° SSW
ARIANE 5 R/B 2.5 19:58:11 74° E 19:58:14 74° ENE 20:02:40 10° N
Cosmos 2341 Rocket 4.2 19:54:50 10° N 20:01:00 54° E 20:02:07 48° ESE
Cosmos 1606 Rocket 3.7 20:01:54 10° NNW 20:06:12 63° W 20:06:16 63° W
GP-B 3.7 20:02:35 10° NNE 20:06:09 44° ENE 20:06:09 44° ENE
Okean 1-7 Rocket 4.4 20:21:16 44° NE 20:21:16 44° NE 20:24:35 10° NNE
Cosmos 2181 Rocket 3.8 20:22:33 67° SE 20:23:17 75° E 20:29:29 10° N
Cosmos 1892 3.9 20:27:17 39° NNW 20:27:17 39° NNW 20:29:54 10° N
Cosmos 1726 Rocket 4.4 20:24:46 10° NNW 20:28:35 44° W 20:28:35 44° W
Cosmos 1992 Rocket 4.0 20:35:13 78° WNW 20:35:15 78° WNW 20:40:31 10° NNE
SL-16 R/B 3.5 20:34:02 10° N 20:38:49 27° ENE 20:39:33 26° ENE
Cosmos 1980 Rocket 2.1 20:33:22 10° NNW 20:39:02 75° WSW 20:39:07 75° WSW
Cosmos 1697 Rocket 3.7 20:34:04 10° NW 20:39:04 34° WSW 20:39:32 34° WSW
Cosmos 1486 Rocket 4.4 20:36:00 10° N 20:40:47 51° NE 20:40:47 51° NE
Cosmos 2369 3.8 20:36:49 10° NNW 20:42:28 62° WSW 20:42:35 61° WSW
Cosmos 2344 4.4 20:33:20 10° NW 20:43:07 82° WSW 20:48:13 44° SSE
ATLAS 5 CENTAUR R/B 2.9 20:48:00 31° NNW 20:48:00 31° NNW 20:50:57 10° NNE
In-Cosmos 22 Rocket 4.4 20:48:38 58° WSW 20:49:05 60° W 20:54:30 10° N
Nadezhda 3 Rocket 4.4 20:51:40 46° E 20:51:40 46° E 20:57:08 10° NNE
Terra 3.8 20:56:28 19° W 20:56:36 19° W 20:59:56 10° NW
ADEOS Rocket 3.9 20:58:46 44° E 21:00:12 49° ENE 21:07:28 10° N
Meteor 1-27 4.2 20:55:01 10° NNW 21:00:16 74° WNW 21:00:16 74° WNW
ALOS 2 4.1 21:02:25 30° NE 21:02:25 30° NE 21:05:14 10° N
SL-8 Rocket 4.4 21:01:56 10° NNW 21:07:53 50° W 21:08:23 49° WSW
Cosmos 2322 Rocket 3.1 21:09:13 10° N 21:14:29 38° ENE 21:14:37 37° ENE
Cosmos 1503 Rocket 4.5 21:13:52 10° NNW 21:18:16 57° NNE 21:18:16 57° NNE
Cosmos 2278 4.3 21:19:38 10° NNW 21:24:23 49° WNW 21:24:23 49° WNW
Cosmos 2333 Rocket 4.2 21:25:09 10° N 21:29:16 20° NE 21:30:53 18° ENE
SJ 16-02 2.8 21:32:41 10° N 21:35:23 35° N 21:35:23 35° N
Cosmos 1934 Rocket 4.1 21:42:51 10° N 21:48:35 63° ENE 21:48:35 63° ENE
Cosmos 2360 Rocket 2.9 21:45:00 10° N 21:50:16 47° ENE 21:50:16 47° ENE
Cosmos 2221 4.4 21:49:05 10° NNE 21:51:30 27° NE 21:51:30 27° NE
Cosmos 1833 4.5 21:58:00 62° NNE 21:58:00 62° NNE 22:02:39 10° NNE
DEBRIS 4.1 21:42:37 10° NW 21:57:23 70° NNE 21:58:00 65° ENE
Meteor 2-2 Rocket 4.4 21:56:16 10° N 22:01:45 75° N 22:01:45 75° N
Cosmos 1339 Rocket 4.4 22:05:27 80° N 22:05:27 80° N 22:11:14 10° N
USA 234 3.4 22:04:42 54° E 22:06:05 68° NE 22:12:35 10° NW
Cosmos 1535 Rocket 4.5 22:07:02 10° N 22:13:14 82° NE 22:13:14 82° NE
Cosmos 2297 Rocket 4.5 22:17:05 13° E 22:17:05 13° E 22:18:45 10° ENE
Cosmos 1763 Rocket 4.2 22:21:41 48° NE 22:21:41 48° NE 22:25:36 10° NNE
SL-16 R/B 3.4 22:17:46 10° NW 22:21:23 32° WNW 22:21:23 32° WNW
Cosmos 2219 Rocket 3.1 22:22:16 10° N 22:27:36 40° ENE 22:28:08 39° ENE
Cosmos 1605 Rocket 3.9 22:32:09 10° N 22:38:25 82° WNW 22:38:25 82° WNW
ADEOS Rocket 4.4 22:45:43 30° W 22:45:47 30° W 22:52:18 10° NW
Cosmos 468 Rocket 4.4 22:47:18 61° N 22:47:18 61° N 22:51:44 10° NNE
Meteor 1-26 Rocket 4.4 22:45:05 10° N 22:50:55 72° ENE 22:50:55 72° ENE
NOSS 3-2 (A) 3.3 22:54:56 73° N 22:54:56 73° N 23:00:27 10° NNE
Cosmos 540 Rocket 3.9 22:55:58 60° NNE 22:55:58 60° NNE 23:00:10 10° NNE
Cosmos 2322 Rocket 3.9 22:53:37 10° NW 22:56:24 22° WNW 22:56:24 22° WNW
ISS -0.7 23:01:42 15° N 23:01:42 15° N 23:02:57 10° NNE
Cosmos 2285 Rocket 4.0 23:08:13 68° W 23:08:32 70° WNW 23:14:59 10° NNE
CENTAUR R/B 2.3 23:09:34 72° WNW 23:09:43 72° NW 23:16:23 10° NNE
Cosmos 2333 Rocket 2.7 23:08:16 10° NNW 23:12:51 49° WNW 23:12:51 49° WNW
Timation 1 Rocket 4.2 23:16:22 86° SE 23:16:26 86° ESE 23:22:28 10° NNE
Cosmos 1898 Rocket 3.6 23:15:43 10° NNW 23:20:27 73° NNE 23:20:27 73° NNE
Cosmos 1151 Rocket 4.1 23:20:28 10° N 23:24:19 41° ENE 23:24:19 41° ENE
Cosmos 1340 4.4 23:21:55 10° N 23:24:19 29° NE 23:24:19 29° NE
Cosmos 1937 Rocket 3.6 23:24:06 10° NNW 23:29:20 69° ENE 23:29:31 68° E
Cosmos 2227 Rocket 3.0 23:29:43 39° ESE 23:30:11 40° ESE 23:35:26 10° NE
Cosmos 2360 Rocket 4.1 23:29:58 10° NW 23:31:59 17° WNW 23:31:59 17° WNW
MOS 1 Rocket 4.1 23:36:00 46° ESE 23:37:00 53° ENE 23:42:09 10° N
Resurs 1-4 Rocket 2.0 23:32:30 10° NNE 23:37:51 86° ESE 23:38:01 83° SSE
NOSS 3-2 (C) 3.1 23:41:34 67° W 23:42:00 71° WNW 23:48:04 10° NNE
Cosmos 1814 Rocket 3.8 23:43:16 80° ESE 23:43:16 80° ESE 23:48:25 10° NNE
CZ-2D R/B 1.9 23:41:11 10° NNE 23:46:26 83° WNW 23:46:40 79° WSW
OAO 3 Rocket 3.8 23:49:31 48° ESE 23:49:31 48° ESE 23:53:08 10° E
Cosmos 1766 Rocket 3.7 23:49:17 68° NNE 23:49:17 68° NNE 23:53:06 10° N
COSMOS 2455 3.8 23:43:18 10° NNW 23:49:03 44° ENE 23:54:45 10° SE
SL-16 R/B 2.7 23:49:37 37° SSE 23:52:13 72° ENE 23:58:27 10° N
UNK 4.3 23:51:46 46° ESE 23:52:40 54° ENE 23:57:14 10° N
